Temp
59 60 62 64 64 64 64 63 62 61 61 61 61 61 62 62 62 61 60 60 61 62 62 62 62 61 74 75 79 82 73 77 87 87 85 85 82 83 78 83 84 81 83 87 90 88 87
58 58 59 63 63 63 64 63 62 61 61 61 60 61 61 62 62 61 60 60 60 61 61 61 62 60 73 64 88 88 85 85 87 86 86 85 83 85 80 80 80 84 84 83 85 86 87
57 57 58 59 62 63 63 62 61 61 60 60 60 60 60 60 61 60 60 60 60 60 61 61 62 73 69 69 87 90 85 84 86 86 82 85 84 80 82 77 84 81 74 81 83 86 85
57 57 58 58 60 62 61 61 61 61 60 60 60 60 59 59 60 59 59 59 59 60 60 61 62 71 65 83 86 82 85 82 86 86 83 86 85 80 78 82 78 74 76 70 83 86 86
57 57 58 58 59 60 61 61 60 60 60 60 60 59 58 58 58 58 58 58 59 60 60 61 66 67 65 72 73 81 83 79 84 84 82 83 80 76 78 70 70 74 67 72 78 88 84
57 57 57 57 58 59 60 60 60 60 60 59 59 59 58 58 57 57 57 58 59 59 63 71 70 60 69 71 76 78 82 82 77 76 74 74 74 71 72 70 62 69 71 75 74 83 83
59 57 57 58 57 59 60 61 60 59 59 59 59 59 58 58 57 56 58 63 59 60 63 64 69 69 73 78 78 74 79 77 76 73 67 72 67 65 71 74 73 71 68 68 74 80 77
58 58 57 57 57 59 60 61 59 59 59 59 59 58 58 58 57 57 67 65 71 71 61 64 69 73 78 76 69 75 81 70 69 65 72 71 62 73 77 76 73 71 67 66 73 77 75
57 58 58 57 57 59 59 60 59 58 58 58 58 58 58 57 56 56 66 67 81 74 60 68 69 69 71 75 68 73 76 74 71 67 69 66 72 76 70 69 68 67 64 66 66 72 73
57 57 58 57 57 58 58 59 59 58 58 58 58 57 56 55 53 58 62 73 76 70 52 61 64 68 72 73 64 78 82 74 71 65 69 69 75 71 69 67 68 60 71 67 64 61 56
56 56 57 58 56 57 57 58 59 58 58 58 57 57 56 57 62 54 66 71 68 59 32 66 64 75 72 64 70 71 80 75 64 67 68 65 68 66 62 66 71 64 70 67 66 62 61
55 56 56 57 57 56 56 57 57 58 57 57 57 56 56 55 57 62 67 63 56 39 31 58 62 58 58 61 65 66 67 74 71 62 64 65 75 69 67 70 69 71 64 64 64 61 51
55 55 56 57 57 56 57 57 57 57 57 57 56 56 56 59 54 60 60 53 37 31 60 57 54 58 57 55 57 60 58 57 57 47 49 61 64 70 68 62 67 65 59 50 49 48 49
54 55 56 57 57 57 57 57 56 56 56 56 55 55 57 58 60 59 55 44 31 46 55 65 62 59 54 60 58 58 58 56 62 62 60 55 53 64 69 63 62 61 61 52 42 47 56
54 56 57 56 55 57 56 55 55 55 55 56 55 55 55 55 59 58 49 34 36 53 62 60 60 54 55 60 61 59 59 60 64 65 57 58 58 70 69 69 68 63 56 66 55 57 51
55 56 55 54 54 54 54 54 54 54 55 55 54 52 51 57 59 54 45 37 44 57 62 62 53 58 53 57 57 58 58 65 65 69 70 63 54 66 67 70 69 65 69 54 53 39 40
52 53 53 52 52 52 53 53 54 54 54 54 51 47 45 48 56 49 38 38 48 60 62 58 57 56 60 56 59 57 59 64 68 66 69 65 59 59 64 60 60 60 57 58 58 54 44
51 51 51 51 51 51 52 53 53 53 53 53 49 38 44 47 42 34 36 45 51 55 58 56 60 59 56 56 55 56 56 60 69 68 59 64 58 52 57 68 71 67 62 59 45 46 51
51 50 50 50 51 51 51 50 52 52 51 52 38 37 45 45 33 32 37 44 48 51 49 49 53 57 58 50 42 52 56 60 64 63 60 62 51 45 51 59 64 58 60 61 58 55 46
50 50 50 50 50 50 50 50 49 50 50 49 41 33 37 39 35 36 35 37 38 43 48 47 49 52 48 44 49 49 53 58 60 60 50 54 54 50 45 51 56 52 56 58 56 43 46
49 49 50 50 50 49 49 50 50 49 49 48 41 35 40 32 33 37 40 36 35 35 40 44 41 46 44 38 44 46 54 51 55 53 55 55 46 52 55 57 56 55 54 56 52 52 44
49 49 49 49 49 50 50 49 49 49 50 42 35 38 40 38 42 37 37 33 35 35 37 35 37 40 46 39 41 42 49 51 41 47 51 54 40 47 44 53 52 47 53 55 55 55 54
49 49 49 49 49 49 49 49 49 49 48 38 40 42 43 37 37 37 37 37 37 38 35 40 40 38 36 37 41 40 42 41 41 40 43 38 38 35 33 47 46 36 45 50 53 56 55
48 49 49 49 49 49 49 49 49 50 51 45 43 41 37 34 36 37 40 40 38 39 35 38 42 38 39 46 45 44 43 41 39 40 42 36 35 36 33 41 28 48 60 58 54 55 48
48 48 48 48 48 48 48 48 48 49 49 52 46 43 39 35 38 38 39 39 38 39 37 37 39 46 50 44 37 33 33 35 40 45 44 42 37 33 30 33 42 48 53 48 47 47 44
47 47 47 47 48 48 48 48 48 48 49 56 54 54 45 39 37 43 38 38 35 36 36 38 46 51 50 42 35 31 30 37 36 40 49 46 41 33 32 27 25 44 48 53 51 37 43
47 47 47 47 47 48 48 48 48 48 49 55 55 55 52 38 44 43 39 38 45 43 39 38 39 40 48 36 32 33 34 44 34 35 35 35 32 29 32 29 37 49 48 51 33 37 46
47 47 47 47 47 47 47 48 48 48 48 51 53 57 52 48 46 48 47 44 45 46 38 41 37 38 38 32 34 36 36 41 39 44 41 38 34 33 35 30 28 51 48 37 44 50 51
46 47 47 47 47 47 47 47 48 47 47 48 54 57 57 52 47 54 54 54 53 52 46 45 44 44 44 38 40 42 37 41 40 33 48 34 42 38 41 40 49 53 51 55 55 52 52
MSLP
1008.00 1007.85 1007.32 1007.24 1007.96 1008.68 1009.48 1010.07 1010.62 1011.19 1011.89 1012.41 1012.80 1013.34 1013.82 1014.20 1014.61 1015.08 1015.39 1015.65 1015.86 1016.01 1016.06 1016.14 1015.93 1015.46 1014.22 1012.22 1010.06 1010.64 1011.40 1011.18 1010.66 1010.25 1009.61 1008.79 1008.14 1007.32 1006.44 1005.44 1005.12 1004.66 1004.38 1003.76 1003.16 1003.24 1003.29
1007.68 1007.46 1007.10 1006.44 1006.92 1007.64 1008.58 1009.30 1009.85 1010.50 1011.24 1011.77 1012.24 1012.85 1013.45 1013.92 1014.32 1014.81 1015.20 1015.46 1015.79 1016.01 1016.24 1016.10 1016.01 1015.46 1014.23 1011.89 1010.13 1010.13 1010.48 1010.62 1010.15 1009.64 1009.02 1008.88 1008.08 1007.66 1007.11 1006.16 1005.49 1004.57 1004.35 1004.04 1003.56 1003.08 1002.97
1006.78 1006.86 1006.81 1006.47 1006.02 1006.77 1007.58 1008.45 1008.94 1009.75 1010.52 1011.17 1011.89 1012.17 1012.94 1013.61 1013.96 1014.48 1014.95 1015.42 1015.74 1015.96 1016.17 1016.16 1016.07 1015.09 1013.54 1010.90 1010.20 1009.75 1010.27 1010.26 1010.18 1009.78 1009.16 1009.12 1009.06 1008.62 1007.40 1006.47 1005.81 1005.50 1004.77 1003.62 1002.81 1002.26 1001.79
1006.01 1006.16 1006.06 1005.98 1005.52 1005.82 1006.78 1007.46 1008.20 1008.98 1009.72 1010.50 1011.18 1011.84 1012.34 1013.13 1013.68 1014.14 1014.82 1015.33 1015.83 1015.94 1016.17 1016.26 1015.98 1014.88 1012.30 1010.26 1010.38 1010.21 1010.07 1009.88 1010.02 1010.03 1009.96 1009.57 1009.68 1009.12 1008.14 1007.24 1006.18 1005.50 1004.32 1002.62 1001.34 1000.94 1001.25
1005.17 1005.63 1005.58 1005.33 1005.16 1005.03 1005.73 1006.63 1007.46 1008.13 1009.05 1009.66 1010.48 1011.19 1011.96 1012.68 1013.60 1013.94 1014.76 1015.31 1015.80 1016.00 1016.08 1016.12 1015.65 1014.37 1011.15 1010.89 1010.50 1009.56 1009.56 1009.24 1009.05 1009.45 1009.85 1009.91 1009.66 1008.76 1007.84 1007.09 1005.44 1004.16 1002.50 1001.43 1000.39 1000.20 1000.48
1003.86 1004.01 1004.36 1004.73 1004.67 1004.79 1004.76 1005.71 1006.58 1007.41 1008.21 1009.22 1009.81 1010.67 1011.42 1012.38 1013.22 1014.00 1014.70 1015.32 1015.84 1016.10 1016.05 1015.35 1014.91 1014.24 1010.80 1009.56 1009.35 1009.43 1009.28 1008.94 1009.06 1009.18 1009.52 1009.34 1008.70 1007.52 1006.99 1005.98 1003.76 1002.60 1001.60 1000.56 999.97 999.88 1000.04
1002.08 1002.64 1003.58 1004.63 1004.65 1004.02 1004.54 1004.62 1005.67 1006.52 1007.48 1008.51 1009.01 1010.20 1010.89 1012.02 1012.74 1013.74 1014.86 1015.14 1015.76 1014.80 1013.98 1012.30 1010.74 1009.90 1008.71 1009.04 1009.48 1009.20 1009.38 1008.99 1008.75 1008.54 1007.89 1007.70 1007.10 1005.47 1004.88 1004.46 1004.13 1003.72 1003.12 1001.73 1001.18 1001.14 1000.62
1001.48 1002.06 1002.85 1003.30 1003.41 1003.63 1004.01 1003.89 1004.42 1005.78 1006.68 1007.36 1008.59 1009.37 1010.27 1011.44 1012.45 1013.20 1013.34 1011.85 1010.91 1011.17 1010.98 1011.13 1009.98 1009.17 1008.50 1009.00 1008.40 1008.03 1008.84 1008.71 1007.99 1007.03 1006.63 1006.10 1004.97 1004.88 1004.29 1004.03 1003.77 1003.56 1003.10 1002.18 1001.55 1001.69 1001.37
1000.57 1001.09 1001.66 1002.24 1002.58 1003.10 1003.24 1003.66 1003.71 1004.55 1005.45 1006.63 1007.75 1008.73 1009.76 1010.82 1012.34 1013.00 1011.86 1011.16 1010.36 1011.28 1010.50 1008.38 1008.04 1007.72 1008.00 1008.50 1007.51 1006.94 1007.92 1007.47 1006.34 1005.84 1005.45 1004.59 1003.12 1003.82 1004.41 1004.10 1003.76 1003.77 1003.65 1003.05 1002.66 1002.36 1002.08
999.68 1000.12 1000.67 1001.20 1001.80 1002.15 1002.35 1002.98 1003.20 1003.78 1004.50 1005.62 1006.98 1008.22 1009.17 1010.45 1012.79 1011.92 1011.14 1011.16 1011.02 1012.20 1010.48 1006.58 1006.05 1005.74 1006.69 1007.44 1006.34 1006.39 1006.03 1006.58 1005.84 1005.08 1005.18 1003.86 1003.60 1003.56 1003.57 1003.43 1004.17 1003.44 1003.98 1004.00 1003.78 1003.67 1002.13
998.84 999.45 999.73 1000.10 1000.78 1001.51 1001.82 1001.92 1002.37 1002.79 1003.54 1004.30 1005.69 1007.02 1008.43 1008.88 1009.77 1009.93 1010.40 1011.01 1012.05 1012.53 1010.04 1004.49 1004.95 1005.47 1005.50 1006.35 1004.95 1004.76 1005.45 1005.66 1004.84 1004.64 1005.23 1002.30 1003.15 1003.54 1003.77 1003.43 1003.62 1003.11 1004.30 1004.23 1003.92 1003.50 1002.70
997.87 998.37 998.92 999.31 999.92 1000.33 1000.83 1000.98 1001.69 1002.08 1002.68 1003.71 1004.68 1005.61 1007.67 1008.83 1009.40 1009.85 1010.36 1011.66 1012.31 1012.45 1007.68 1004.18 1004.82 1005.28 1005.81 1005.90 1005.21 1005.70 1005.63 1005.83 1005.70 1005.46 1004.80 1003.55 1003.81 1003.94 1003.81 1003.58 1003.67 1003.84 1004.58 1004.54 1004.36 1003.94 1001.68
996.89 997.30 997.76 998.16 998.62 999.39 999.97 999.97 1001.13 1001.48 1002.13 1003.05 1003.74 1004.69 1005.76 1006.62 1007.50 1009.20 1010.39 1011.68 1011.31 1008.47 1004.47 1002.84 1003.86 1004.51 1004.78 1005.04 1005.23 1005.38 1005.60 1005.38 1004.66 1005.03 1004.14 1003.94 1003.05 1003.39 1004.28 1004.02 1003.98 1004.08 1004.24 1003.52 1003.22 1002.58 1000.25
995.90 996.10 996.66 997.14 997.58 998.21 998.55 998.99 1000.12 1000.72 1001.27 1002.40 1003.47 1004.53 1004.47 1005.40 1006.72 1007.86 1010.01 1010.34 1007.96 1004.46 1002.06 1001.38 1002.51 1003.48 1003.59 1003.54 1004.18 1004.50 1004.54 1003.93 1003.78 1003.08 1001.38 1001.88 1001.52 1002.00 1002.73 1003.27 1002.62 1003.26 1003.38 1002.46 1001.92 1000.92 999.32
994.78 994.84 995.62 996.11 996.35 996.62 997.48 998.51 999.25 1000.17 1001.12 1001.81 1002.85 1003.87 1004.32 1005.00 1005.72 1006.94 1008.55 1008.08 1006.19 1003.25 1001.46 1001.11 1002.16 1002.33 1002.24 1002.42 1002.42 1003.27 1002.96 1002.27 1002.07 1002.31 1001.40 1000.39 1000.24 1001.16 1001.74 1002.47 1002.86 1002.04 1002.77 1002.93 1002.40 1002.08 1001.16
993.47 994.51 995.27 995.96 996.30 996.30 996.77 998.06 998.25 999.47 1000.38 1001.16 1002.04 1003.20 1003.88 1004.44 1004.85 1006.41 1006.60 1006.20 1005.58 1003.57 1001.37 1000.89 1000.64 1000.84 1000.64 1001.14 1001.94 1001.94 1001.66 1000.79 1000.77 1001.21 1001.59 1000.82 1000.71 1001.13 1001.81 1002.43 1002.38 1002.19 1002.10 1002.67 1002.99 1002.63 1001.36
994.10 995.04 995.61 996.10 996.49 996.90 997.56 997.63 998.00 999.53 999.28 1001.26 1002.04 1003.31 1005.01 1004.50 1004.64 1004.95 1004.86 1005.35 1005.20 1003.24 1002.18 1001.30 1000.62 1000.42 1000.13 1000.57 1001.12 1001.05 1000.42 1000.42 1000.64 1001.17 1001.69 1001.85 1001.90 1001.07 1001.62 1001.91 1001.48 1002.11 1002.32 1002.82 1002.89 1002.54 1001.62
995.92 996.20 996.86 997.23 997.21 997.74 998.04 998.20 998.56 998.84 999.29 1001.22 1002.24 1004.04 1005.27 1004.61 1004.04 1004.87 1004.90 1004.82 1004.20 1003.38 1003.66 1003.02 1002.10 1001.27 1001.54 1001.63 1001.67 1001.26 1001.00 1001.02 1001.35 1001.49 1002.05 1002.50 1002.46 1001.67 1001.14 1000.86 1001.11 1001.31 1001.22 1002.03 1002.90 1002.40 1001.96
997.54 997.42 997.96 998.76 998.21 998.58 998.72 999.41 999.30 999.54 1000.02 1001.01 1003.44 1005.09 1005.82 1005.37 1005.08 1005.73 1005.82 1005.30 1004.89 1004.52 1004.49 1004.50 1003.70 1003.08 1003.09 1003.64 1004.01 1003.14 1002.54 1002.73 1003.16 1002.89 1002.61 1003.14 1003.51 1002.65 1001.87 1001.59 1001.44 1001.36 1001.61 1001.76 1002.38 1002.60 1001.61
999.40 999.38 999.43 999.33 998.77 999.36 999.95 1000.10 1000.10 1000.20 1000.18 1001.19 1003.64 1005.61 1005.89 1005.99 1005.94 1005.73 1005.70 1005.73 1005.86 1005.78 1005.18 1005.37 1005.12 1005.16 1005.06 1004.93 1004.98 1004.30 1003.80 1003.69 1004.20 1004.18 1004.59 1004.23 1003.75 1003.01 1001.73 1001.31 1001.70 1001.78 1001.88 1002.13 1002.31 1002.45 1001.53
1000.90 1000.70 1000.84 1000.61 1000.41 1000.43 1000.84 1000.71 1000.88 1000.26 1000.97 1001.76 1003.72 1005.14 1004.90 1005.93 1006.43 1005.84 1005.84 1006.10 1006.23 1006.63 1006.68 1006.42 1006.49 1006.06 1006.14 1006.06 1005.94 1005.44 1004.86 1005.04 1005.52 1005.65 1005.66 1005.51 1004.34 1003.98 1002.89 1002.57 1002.56 1002.32 1002.20 1001.90 1001.85 1002.18 1001.82
1002.63 1002.54 1002.50 1002.14 1001.92 1002.00 1002.14 1001.57 1002.15 1001.80 1001.83 1002.98 1004.04 1005.19 1004.93 1005.41 1005.20 1005.76 1005.66 1006.08 1006.15 1007.02 1007.28 1007.29 1007.27 1007.07 1006.84 1006.93 1007.03 1006.87 1006.50 1006.23 1006.86 1007.11 1006.79 1006.42 1005.82 1005.60 1004.26 1003.59 1003.36 1002.64 1002.43 1001.72 1001.66 1001.72 1001.40
1003.78 1003.63 1003.62 1003.57 1003.49 1003.20 1002.92 1003.39 1002.75 1002.47 1002.27 1004.06 1005.34 1004.88 1004.13 1005.20 1005.37 1005.27 1005.01 1005.11 1005.68 1006.27 1007.69 1007.44 1007.45 1007.89 1007.84 1008.20 1008.44 1008.63 1008.68 1008.75 1008.47 1008.38 1008.06 1008.22 1007.63 1007.12 1005.07 1004.34 1003.94 1002.96 1001.85 1002.28 1001.97 1001.90 1001.88
1004.66 1004.56 1004.42 1004.29 1004.34 1004.10 1004.09 1003.96 1003.55 1003.07 1002.95 1004.04 1005.02 1004.92 1004.82 1004.90 1004.88 1004.75 1004.72 1005.11 1005.32 1005.80 1006.89 1007.57 1007.86 1007.93 1008.94 1009.13 1009.61 1009.52 1009.31 1009.50 1009.50 1009.35 1009.21 1009.15 1008.86 1008.26 1006.61 1005.51 1003.14 1001.58 1001.44 1001.21 1001.16 1001.92 1003.11
1005.85 1005.49 1005.11 1005.04 1005.00 1004.99 1004.98 1004.62 1004.13 1003.78 1003.65 1003.97 1004.90 1004.96 1005.22 1004.71 1004.92 1005.10 1005.14 1005.33 1005.94 1006.50 1006.90 1007.69 1007.93 1007.68 1008.24 1008.87 1009.38 1009.59 1009.33 1009.37 1008.55 1008.40 1008.61 1009.54 1009.58 1008.92 1007.82 1005.96 1003.90 1002.86 1002.52 1002.89 1002.98 1003.59 1005.58
1006.40 1006.29 1006.12 1005.85 1005.57 1005.59 1005.72 1005.44 1005.21 1004.83 1004.51 1004.08 1004.75 1005.10 1005.26 1005.06 1004.63 1004.72 1005.30 1005.59 1005.79 1006.14 1006.95 1007.38 1007.77 1007.78 1007.70 1007.97 1008.41 1008.06 1007.31 1006.46 1006.54 1006.74 1007.87 1008.62 1009.27 1009.41 1008.29 1006.83 1005.01 1003.67 1004.63 1004.86 1005.02 1004.98 1006.42
1006.75 1006.63 1006.51 1006.47 1006.26 1006.04 1005.81 1005.66 1005.70 1005.69 1005.30 1004.73 1004.69 1005.06 1004.29 1004.38 1004.67 1004.92 1005.30 1005.31 1005.34 1005.34 1006.09 1007.25 1007.30 1007.72 1007.64 1007.68 1007.60 1007.19 1006.37 1005.60 1005.45 1005.54 1006.60 1007.76 1008.68 1008.30 1007.70 1006.61 1005.03 1004.44 1005.11 1005.28 1005.48 1006.27 1006.68
1006.70 1006.68 1006.68 1006.62 1006.48 1006.36 1006.32 1006.24 1006.20 1006.21 1006.00 1005.50 1005.00 1005.07 1004.09 1003.70 1004.43 1005.04 1005.33 1005.03 1005.08 1004.83 1005.22 1006.39 1007.23 1007.46 1007.73 1007.42 1007.05 1006.55 1005.90 1005.10 1004.77 1004.58 1004.99 1005.93 1006.47 1006.21 1006.44 1005.74 1004.66 1004.64 1005.14 1005.78 1005.96 1006.02 1006.30
1006.78 1006.50 1006.38 1006.38 1006.36 1006.34 1006.35 1006.44 1006.49 1006.43 1006.27 1005.99 1004.63 1005.17 1004.80 1004.04 1004.60 1004.92 1004.94 1005.25 1005.00 1004.71 1004.91 1005.32 1005.32 1005.76 1006.08 1006.32 1006.12 1005.59 1005.38 1004.71 1004.62 1004.50 1005.12 1005.90 1005.23 1005.05 1005.10 1004.59 1004.92 1005.00 1005.21 1005.24 1005.24 1005.36 1005.68
Wind_Speed
25 24 21 30 29 28 27 26 24 23 21 20 19 18 17 16 14 13 11 9 7 5 2 4 8 13 12 8 12 13 3 7 10 8 12 12 12 12 16 10 10 16 20 20 17 15 17
25 25 23 28 30 29 29 27 25 23 22 21 20 18 17 16 14 12 10 9 7 4 2 2 7 12 9 14 4 1 4 6 10 8 9 8 5 8 11 14 12 14 17 18 19 21 20
25 25 24 20 30 29 29 28 26 25 23 22 20 19 17 16 14 12 11 9 7 5 3 1 5 9 10 18 4 5 7 8 5 8 8 4 6 8 7 12 9 14 18 20 19 21 23
26 25 25 23 23 29 28 27 26 25 24 23 21 19 18 16 14 12 11 9 7 6 4 3 5 7 10 5 8 11 12 14 13 12 11 10 9 13 14 12 15 18 19 18 17 9 11
28 28 25 24 17 25 29 27 27 25 25 24 23 20 18 17 14 13 11 10 8 6 4 5 8 4 12 6 9 11 17 15 15 11 10 7 9 13 10 13 13 16 19 22 23 13 14
29 26 26 23 20 15 29 29 28 27 25 24 23 22 20 18 15 14 13 12 8 7 6 7 6 5 10 9 4 4 6 9 8 10 10 12 10 11 12 14 16 16 22 22 24 13 13
26 27 26 26 24 17 23 29 28 27 27 25 23 23 21 19 18 18 17 10 6 8 13 12 9 9 3 4 5 9 8 11 8 13 14 16 11 16 19 19 21 21 23 27 24 23 24
27 26 29 29 22 19 19 28 30 29 27 26 26 24 23 21 21 23 18 12 14 7 8 27 27 22 18 4 6 9 14 13 12 16 17 14 20 18 20 21 22 21 23 26 26 20 20
27 26 26 28 25 20 19 23 29 31 29 27 26 25 24 22 22 16 22 24 6 3 8 16 24 22 24 21 20 20 19 19 17 19 20 23 22 8 6 11 19 18 22 22 25 22 21
27 26 26 27 28 18 17 19 27 30 30 29 27 26 24 24 14 13 23 19 6 4 7 11 11 10 25 19 16 27 24 22 18 24 23 22 23 25 27 26 16 23 17 17 16 15 16
24 26 27 27 28 23 21 17 27 29 30 30 30 28 29 31 12 20 16 12 8 2 6 6 13 4 11 22 5 12 29 25 31 27 17 24 14 16 18 23 23 22 18 16 17 19 21
25 26 28 28 28 24 23 19 20 26 29 31 32 33 33 18 3 14 11 14 5 6 14 9 12 14 17 21 11 6 9 17 11 27 27 26 22 10 13 13 13 15 7 14 15 13 14
24 26 27 28 26 26 25 22 24 23 25 25 29 33 29 17 14 18 17 11 9 9 10 14 11 17 20 17 17 14 15 21 14 11 20 24 26 24 9 12 10 12 12 7 10 11 10
19 26 26 28 27 28 26 20 18 19 26 27 27 29 26 11 15 24 12 11 9 19 22 9 14 18 20 18 19 19 17 17 22 19 7 15 13 26 22 22 11 16 17 8 9 11 12
22 25 25 22 14 25 27 22 19 21 26 29 27 14 11 9 21 18 14 15 9 12 25 16 18 19 16 18 12 19 20 19 19 17 10 11 6 17 7 13 16 13 16 18 19 17 16
21 18 15 14 15 16 21 19 19 15 22 26 10 8 7 18 23 17 16 14 11 16 8 20 16 19 21 21 16 18 19 15 17 16 18 2 5 15 14 12 14 18 3 12 8 7 13
31 25 25 25 23 20 15 16 18 18 24 18 3 6 3 4 14 12 15 8 14 12 10 16 20 15 13 15 21 21 12 5 18 13 14 9 7 7 11 12 13 12 15 12 10 14 13
29 30 26 23 26 24 21 13 14 17 17 5 2 3 4 4 8 2 5 9 7 13 12 8 11 13 12 11 13 15 16 13 9 9 14 13 6 12 18 14 16 18 18 20 12 18 13
29 28 27 24 27 25 25 23 17 15 10 5 4 2 2 4 6 3 0 5 8 14 14 8 11 11 12 9 5 12 15 10 9 11 9 10 7 9 17 17 18 19 20 17 16 18 25
27 27 25 24 27 26 24 22 20 18 16 5 5 2 3 3 3 6 5 4 5 4 8 6 8 9 8 10 12 8 18 11 8 12 7 1 16 18 17 16 6 12 22 20 22 16 19
26 25 23 23 23 22 20 20 19 20 15 4 3 2 1 5 4 3 7 10 7 6 2 3 4 16 12 7 19 19 19 2 6 6 4 7 18 21 24 24 23 23 21 23 24 21 22
22 22 22 22 22 21 18 18 15 14 11 5 3 3 1 3 7 11 11 9 13 5 8 5 5 8 10 5 5 8 19 15 6 5 13 11 9 16 24 25 24 23 25 29 28 25 29
20 20 20 19 19 19 19 16 13 11 11 4 0 2 0 5 6 8 7 10 10 13 1 2 7 6 6 6 7 9 8 6 4 2 9 3 4 5 15 22 22 20 28 28 28 29 29
17 17 17 16 16 17 16 16 16 14 9 4 2 2 2 2 2 2 7 10 13 15 8 4 10 7 6 14 11 7 6 3 3 5 2 3 1 3 4 10 17 11 16 21 21 19 12
14 15 15 14 13 13 13 14 15 14 11 6 2 2 1 3 4 6 8 5 10 11 6 6 3 7 18 11 4 5 3 3 10 10 12 9 3 3 5 8 17 18 10 8 9 5 9
12 11 11 12 9 8 8 11 12 13 14 2 5 3 1 1 2 6 5 10 6 4 6 6 10 15 13 4 3 7 6 6 7 8 15 13 11 6 4 6 6 7 7 7 6 11 5
10 10 11 9 9 4 6 7 9 10 13 8 4 4 3 3 2 5 2 7 7 8 6 5 7 6 6 4 5 6 6 5 8 10 12 8 5 13 14 12 10 4 4 4 9 5 6
10 9 8 8 8 3 2 4 5 7 10 8 6 4 5 2 8 5 6 8 5 6 8 11 6 5 6 6 6 5 5 8 5 7 10 12 11 10 11 13 18 7 1 5 10 14 14
11 11 10 8 8 7 6 3 2 3 6 9 1 2 5 2 4 2 4 4 6 2 5 14 5 14 7 6 6 4 5 3 7 8 12 7 10 7 7 7 5 9 13 14 13 14 15
Wind_Direction
276 290 258 207 206 205 205 202 201 199 199 198 195 194 195 194 196 199 201 205 212 218 254 324 326 313 309 261 268 117 182 202 257 265 268 268 264 264 257 263 268 255 262 278 280 277 266
266 274 290 218 205 202 203 203 199 198 198 195 193 192 194 195 192 196 197 197 200 199 218 335 317 308 275 265 326 144 217 258 255 251 242 246 280 335 292 273 268 286 299 283 282 278 277
258 263 277 281 208 202 201 201 197 195 196 195 196 189 191 194 190 188 188 191 186 177 186 249 302 300 266 249 295 255 218 264 266 258 249 222 291 278 326 267 276 282 277 276 269 266 261
251 259 263 281 228 201 201 200 197 195 194 194 193 191 186 188 187 178 178 176 171 168 173 219 278 288 262 298 281 257 258 249 241 246 252 271 278 276 275 280 276 264 262 274 271 248 273
238 244 252 261 238 215 198 197 196 195 194 192 191 188 185 180 184 166 160 151 156 160 171 213 248 254 269 100 233 247 230 239 232 226 236 245 237 242 231 239 260 237 261 276 284 271 236
227 237 244 257 263 239 204 197 196 194 193 193 188 185 182 181 170 150 140 151 146 152 220 228 279 270 232 245 145 210 178 195 180 175 179 205 207 217 214 235 250 273 290 298 300 301 259
228 230 238 243 254 223 232 197 196 193 190 189 185 186 180 176 159 146 137 133 188 213 205 216 195 234 157 169 175 201 182 190 191 203 217 199 224 213 237 237 252 272 280 280 282 289 284
226 224 228 233 249 227 238 209 194 195 192 187 186 182 176 172 159 163 180 197 220 9 239 224 247 236 261 167 247 203 185 205 198 217 216 219 234 252 265 271 274 267 271 269 281 279 272
222 225 218 224 233 227 230 229 199 193 190 188 184 180 174 161 159 170 202 211 297 329 263 254 212 230 228 228 242 238 193 212 225 223 232 249 252 206 257 272 262 254 265 273 281 301 295
222 224 229 215 220 227 228 235 207 195 188 185 183 177 163 143 163 181 208 201 147 282 274 239 210 234 215 215 257 223 216 219 236 240 245 259 265 260 262 260 246 263 257 269 280 289 278
222 224 228 224 213 225 228 228 210 193 191 188 180 171 161 167 169 188 188 180 123 274 244 232 152 106 167 186 352 197 214 228 235 238 229 236 244 246 250 259 254 250 268 274 276 273 285
221 221 224 227 209 214 222 216 214 201 194 190 182 172 166 178 132 180 170 127 91 175 226 206 150 184 171 202 225 120 196 219 272 242 256 257 263 229 269 269 249 255 255 264 255 260 259
228 225 223 225 209 206 213 200 204 192 192 190 185 176 171 172 182 156 138 143 174 209 209 183 181 176 188 189 210 189 188 190 194 193 226 234 235 240 199 241 212 216 201 234 219 216 241
239 218 220 218 218 210 203 196 207 201 187 185 183 177 186 170 152 142 155 188 217 202 195 104 186 172 192 171 203 196 193 198 223 223 156 204 198 214 216 222 207 203 209 229 238 247 276
258 205 213 200 202 184 171 162 174 194 191 181 168 179 182 163 155 152 174 202 204 225 201 164 168 179 191 184 189 190 207 210 194 209 233 200 217 160 195 195 220 193 209 243 275 286 285
190 190 174 136 145 125 132 138 136 151 184 171 172 174 148 166 159 169 195 192 223 247 275 175 184 192 188 185 208 193 190 212 214 201 236 298 212 180 175 202 213 249 231 216 218 251 242
80 93 99 96 83 85 100 112 118 145 139 147 105 145 359 29 167 187 200 182 214 232 257 200 216 200 221 191 195 196 183 128 203 199 210 215 232 166 147 195 228 194 235 242 292 233 254
70 71 70 77 83 74 73 103 115 123 117 91 162 111 350 333 175 38 146 176 222 204 220 226 270 218 233 191 232 208 226 202 188 192 195 212 263 245 231 226 222 239 247 221 218 235 238
60 64 66 63 76 70 68 68 89 99 89 127 78 93 358 312 169 131 325 150 200 191 183 191 209 225 216 184 200 244 222 100 192 208 204 170 220 255 256 247 244 250 245 250 244 245 244
52 59 61 56 61 66 62 64 65 73 58 87 106 116 41 48 324 136 138 136 149 22 183 170 220 239 224 202 216 226 228 180 198 227 67 193 230 235 250 259 306 240 241 246 244 243 262
46 49 52 59 59 59 60 62 52 61 55 72 71 193 136 154 212 150 177 158 154 166 35 162 195 216 203 204 215 219 235 78 213 173 237 234 237 242 254 261 261 265 245 245 244 252 251
47 49 51 48 52 55 56 55 58 74 79 70 102 163 135 121 166 176 169 185 171 140 158 189 209 187 214 213 207 237 242 228 170 226 235 233 250 256 259 258 261 262 260 264 265 262 257
43 44 47 49 51 48 49 45 51 64 69 76 44 348 262 127 161 171 195 178 184 131 176 214 160 141 173 159 98 77 58 63 106 156 215 166 206 202 246 248 257 257 247 257 263 262 270
29 32 37 40 42 44 43 42 41 43 81 113 82 67 57 161 153 208 198 177 184 184 142 158 163 128 113 117 110 103 106 128 165 224 268 141 228 273 299 255 234 250 255 252 258 269 357
33 24 22 22 31 40 39 36 33 28 18 107 118 78 322 107 143 155 167 150 127 128 120 140 158 144 152 140 128 151 146 189 214 217 202 205 277 267 256 251 288 291 322 347 322 269 38
25 28 26 15 6 20 33 37 34 19 0 219 116 152 120 146 171 136 138 157 137 121 122 139 139 154 171 137 162 215 195 182 170 168 206 202 211 234 222 252 262 340 53 4 313 266 25
18 12 13 18 10 7 4 16 27 23 356 315 107 307 180 102 138 150 179 173 168 164 122 124 135 159 187 168 185 214 208 209 181 184 165 172 188 219 231 245 255 87 36 310 247 344 318
359 2 359 359 4 0 334 339 352 12 355 319 92 349 321 230 147 189 217 173 177 161 165 148 118 195 181 197 204 200 246 190 246 223 215 194 201 205 227 256 266 89 356 331 321 303 308
335 337 337 334 332 334 332 263 270 327 350 332 118 50 322 323 71 55 31 18 7 222 201 174 181 174 168 190 220 215 185 242 206 223 203 237 244 255 261 274 136 311 304 297 292 289 282